GW5159 Weather Reports


time (UTC)temp
C
wind
direction
speed
KPH
gust
KPH
rain 1hr
cm
rain 24hr
cm
rain mn
cm
humidity
%
barometer
mb
20260504070332 -17 330 3.2 3.2 0.00 0.00 0.00 1008.5
20260504050721 -17 141 0.0 1.6 0.00 0.00 0.00 1008.8
20260504050218 -17 148 3.2 3.2 0.00 0.00 0.00 1008.6
20260504045715 -17 182 1.6 3.2 0.00 0.00 0.00 1008.9
20260504045215 -17 147 3.2 3.2 0.00 0.00 0.00 1008.8
20260504044713 -17 177 3.2 3.2 0.00 0.00 0.00 1008.6
20260504044210 -17 162 0.0 1.6 0.00 0.00 0.00 1008.9
20260504043707 -17 124 0.0 1.6 0.00 0.00 0.00 1008.6
20260504043204 -17 160 1.6 4.8 0.00 0.00 0.00 1009.0
20260504042701 -17 141 1.6 4.8 0.00 0.00 0.00 1008.6
20260504042158 -17 153 1.6 1.6 0.00 0.00 0.00 1008.6
20260504041654 -17 160 1.6 3.2 0.00 0.00 0.00 1008.8
20260504041149 -17 184 0.0 1.6 0.00 0.00 0.00 1008.8
20260504040647 -17 174 0.0 0.0 0.00 0.00 0.00 1008.8
20260504040144 -17 103 1.6 1.6 0.00 0.00 0.00 1008.6
20260504035640 -17 254 1.6 1.6 0.00 0.00 0.00 1008.8
20260504035137 -17 174 0.0 0.0 0.00 0.00 0.00 1008.8
20260504034635 -17 181 0.0 0.0 0.00 0.00 0.00 1008.8
20260504034132 -17 169 0.0 0.0 0.00 0.00 0.00 1008.8
20260504033629 -17 135 0.0 1.6 0.00 0.00 0.00 1009.0
20260504033127 -17 181 0.0 1.6 0.00 0.00 0.00 1008.9
20260504032623 -17 242 0.0 1.6 0.00 0.00 0.00 1008.9
20260504032120 -17 322 1.6 3.2 0.00 0.00 0.00 1009.1
20260504031618 -17 244 1.6 1.6 0.00 0.00 0.00 1009.0
20260504031113 -17 258 0.0 1.6 0.00 0.00 0.00 1009.1
20260504030611 -17 261 3.2 3.2 0.00 0.00 0.00 1009.1
20260504030108 -17 287 4.8 4.8 0.00 0.00 0.00 1009.3
20260504025604 -17 293 3.2 6.4 0.00 0.00 0.00 1009.1
20260504025101 -17 265 3.2 3.2 0.00 0.00 0.00 1009.0
20260504024558 -17 277 6.4 9.7 0.00 0.00 0.00 1009.1
20260504024055 -17 316 6.4 9.7 0.00 0.00 0.00 1009.4
20260504023551 -17 330 4.8 6.4 0.00 0.00 0.00 1009.3
20260504023047 -17 316 6.4 9.7 0.00 0.00 0.00 1009.4
20260504022543 -17 305 9.7 11.3 0.00 0.00 0.00 1009.4
20260504022040 -17 274 6.4 14.5 0.00 0.00 0.00 1009.7
20260504021537 -17 288 9.7 14.5 0.00 0.00 0.00 1009.7
20260504021034 -17 338 9.7 11.3 0.00 0.00 0.00 1009.7
20260504020531 -17 320 14.5 20.9 0.00 0.00 0.00 1009.5
20260504020028 -17 281 8.0 17.7 0.00 0.00 0.00 1009.5
20260504015524 -17 323 4.8 4.8 0.00 0.00 0.00 1009.5
20260504015020 -17 305 4.8 6.4 0.00 0.00 0.00 1009.4
20260504014516 -17 254 1.6 3.2 0.00 0.00 0.00 1009.3
20260504014014 -17 259 0.0 1.6 0.00 0.00 0.00 1009.3
20260504013512 -17 309 3.2 4.8 0.00 0.00 0.00 1009.3
20260504013008 -17 320 0.0 3.2 0.00 0.00 0.00 1009.1
20260504012506 -17 227 0.0 1.6 0.00 0.00 0.00 1009.1
20260504012004 -17 228 0.0 4.8 0.00 0.00 0.00 1009.2
20260504011500 -17 357 1.6 3.2 0.00 0.00 0.00 1009.2
20260504010955 -17 233 1.6 3.2 0.00 0.00 0.00 1009.3
20260504010452 -17 40 0.0 1.6 0.00 0.00 0.00 1009.1
20260504005948 -17 47 1.6 3.2 0.00 0.00 0.00 1009.0
20260504005445 -17 199 1.6 4.8 0.00 0.00 0.00 1009.0
20260504004942 -17 134 0.0 0.0 0.00 0.00 0.00 1008.9
20260504004440 -17 112 3.2 3.2 0.00 0.00 0.00 1009.0
20260504003937 -17 130 0.0 1.6 0.00 0.00 0.00 1009.0
20260504003433 -17 120 1.6 4.8 0.00 0.00 0.00 1008.8
20260504002930 -17 128 3.2 3.2 0.00 0.00 0.00 1008.6
20260504002427 -17 146 3.2 3.2 0.00 0.00 0.00 1008.6
20260504001924 -17 158 0.0 0.0 0.00 0.00 0.00 1008.6
20260504001421 -17 158 0.0 3.2 0.00 0.00 0.00 1008.8
20260504000918 -17 252 3.2 4.8 0.00 0.00 0.00 1008.9
20260504000416 -17 292 12.9 14.5 0.00 0.00 0.00 1009.0
20260503235912 -17 306 6.4 17.7 0.00 0.00 0.00 1009.2
20260503235410 -17 285 12.9 17.7 0.00 0.00 0.00 1009.4
20260503234908 -17 295 17.7 17.7 0.00 0.00 0.00 1009.5
20260503234405 -17 292 6.4 17.7 0.00 0.00 0.00 1009.3
20260503233902 -17 305 20.9 33.8 0.00 0.00 0.00 1009.4
20260503233359 -17 285 19.3 25.7 0.00 0.00 0.00 1009.1
20260503232855 -17 349 16.1 25.7 0.00 0.00 0.00 1009.0
20260503232353 -17 330 6.4 12.9 0.00 0.00 0.00 1009.0
20260503231850 -17 323 8.0 17.7 0.00 0.00 0.00 1008.9
20260503231347 -17 310 4.8 12.9 0.00 0.00 0.00 1008.6
20260503230843 -17 303 4.8 6.4 0.00 0.00 0.00 1008.4
20260503230340 -17 271 6.4 9.7 0.00 0.00 0.00 1008.4
20260503225838 -17 290 8.0 9.7 0.00 0.00 0.00 1008.3
20260503225333 -17 335 8.0 9.7 0.00 0.00 0.00 1008.2
20260503224830 -17 265 4.8 9.7 0.00 0.00 0.00 1008.4
20260503224327 -17 303 4.8 6.4 0.00 0.00 0.00 1008.4
20260503223825 -17 306 4.8 11.3 0.00 0.00 0.00 1008.3
20260503223323 -17 326 8.0 9.7 0.00 0.00 0.00 1008.2
20260503222818 -17 298 6.4 9.7 0.00 0.00 0.00 1008.2
20260503222317 -17 313 6.4 9.7 0.00 0.00 0.00 1008.4
20260503221814 -17 291 6.4 14.5 0.00 0.00 0.00 1008.4
20260503221313 -17 283 9.7 12.9 0.00 0.00 0.00 1008.4
20260503220808 -17 253 8.0 12.9 0.00 0.00 0.00 1008.6
20260503220306 -17 281 6.4 11.3 0.00 0.00 0.00 1008.8
20260503215802 -17 310 11.3 14.5 0.00 0.00 0.00 1008.6
20260503215259 -17 305 11.3 14.5 0.00 0.00 0.00 1008.6
20260503214757 -17 281 12.9 17.7 0.00 0.00 0.00 1008.9
20260503214254 -17 286 12.9 20.9 0.00 0.00 0.00 1008.9
20260503213752 -17 313 14.5 20.9 0.00 0.00 0.00 1008.5
20260503213249 -17 319 11.3 22.5 0.00 0.00 0.00 1008.5
20260503212745 -17 293 8.0 11.3 0.00 0.00 0.00 1008.5
20260503212243 -17 286 11.3 14.5 0.00 0.00 0.00 1008.6
20260503211741 -17 297 14.5 24.1 0.00 0.00 0.00 1008.5
20260503211237 -17 276 8.0 14.5 0.00 0.00 0.00 1008.5
20260503210732 -17 285 22.5 25.7 0.00 0.00 0.00 1008.6
20260503210230 -17 324 11.3 16.1 0.00 0.00 0.00 1008.8
20260503205725 -17 260 6.4 16.1 0.00 0.00 0.00 1008.9
20260503205221 -17 287 12.9 17.7 0.00 0.00 0.00 1008.8
20260503204718 -17 270 9.7 16.1 0.00 0.00 0.00 1008.6
20260503204216 -17 288 11.3 17.7 0.00 0.00 0.00 1009.0
20260503203713 -17 314 11.3 20.9 0.00 0.00 0.00 1008.8
20260503203211 -17 294 14.5 22.5 0.00 0.00 0.00 1008.8
20260503202708 -17 311 12.9 20.9 0.00 0.00 0.00 1009.0
20260503202205 -17 308 20.9 24.1 0.00 0.00 0.00 1008.8
20260503201703 -17 330 19.3 24.1 0.00 0.00 0.00 1008.9
20260503201200 -17 299 6.4 24.1 0.00 0.00 0.00 1009.0
20260503200656 -17 311 6.4 17.7 0.00 0.00 0.00 1009.1
20260503200153 -17 303 14.5 29.0 0.00 0.00 0.00 1008.9
20260503195650 -17 278 17.7 22.5 0.00 0.00 0.00 1009.0
20260503195147 -17 325 11.3 20.9 0.00 0.00 0.00 1009.1
20260503194644 -17 338 17.7 30.6 0.00 0.00 0.00 1009.3
20260503194139 -17 301 14.5 22.5 0.00 0.00 0.00 1009.4
20260503193636 -17 287 11.3 17.7 0.00 0.00 0.00 1009.4
20260503193132 -17 297 24.1 29.0 0.00 0.00 0.00 1009.3
20260503192628 -17 268 6.4 11.3 0.00 0.00 0.00 1009.5
20260503192123 -17 343 14.5 24.1 0.00 0.00 0.00 1009.4
20260503191621 -17 354 6.4 16.1 0.00 0.00 0.00 1009.5
20260503191118 -17 283 3.2 17.7 0.00 0.00 0.00 1009.3
20260503190614 -17 303 6.4 14.5 0.00 0.00 0.00 1009.5
20260503190111 -17 282 12.9 24.1 0.00 0.00 0.00 1009.5
20260503185608 -17 334 19.3 30.6 0.00 0.00 0.00 1009.5
20260503185108 -17 299 16.1 24.1 0.00 0.00 0.00 1009.6
20260503184603 -17 252 11.3 22.5 0.00 0.00 0.00 1009.8
20260503184100 -17 299 11.3 24.1 0.00 0.00 0.00 1009.7
20260503183557 -17 259 16.1 22.5 0.00 0.00 0.00 1009.7
20260503183054 -17 289 14.5 20.9 0.00 0.00 0.00 1009.9
20260503182553 -17 318 19.3 24.1 0.00 0.00 0.00 1009.9
20260503182050 -17 269 19.3 25.7 0.00 0.00 0.00 1009.9
20260503181547 -17 297 11.3 24.1 0.00 0.00 0.00 1009.9
20260503181043 -17 235 14.5 20.9 0.00 0.00 0.00 1010.2
20260503180541 -17 311 14.5 24.1 0.00 0.00 0.00 1010.0
20260503180038 -17 347 22.5 29.0 0.00 0.00 0.00 1010.2
20260503175535 -17 341 11.3 25.7 0.00 0.00 0.00 1010.2
20260503175032 -17 286 14.5 17.7 0.00 0.00 0.00 1010.2
20260503174530 -17 246 9.7 20.9 0.00 0.00 0.00 1010.4
20260503174026 -17 267 9.7 24.1 0.00 0.00 0.00 1010.4
20260503173521 -17 275 19.3 24.1 0.00 0.00 0.00 1010.4
20260503173017 -17 280 17.7 20.9 0.00 0.00 0.00 1010.4
20260503172515 -17 282 20.9 25.7 0.00 0.00 0.00 1010.4
20260503172012 -17 298 16.1 24.1 0.00 0.00 0.00 1010.6
20260503171508 -17 314 6.4 16.1 0.00 0.00 0.00 1010.5
20260503171006 -17 317 12.9 24.1 0.00 0.00 0.00 1010.5
20260503170502 -17 313 22.5 25.7 0.00 0.00 0.00 1010.7
20260503150854 -17 291 17.7 25.7 0.00 0.00 0.00 1011.8
20260503150350 -17 259 9.7 20.9 0.00 0.00 0.00 1011.8
20260503140315 -17 322 17.7 25.7 0.00 0.00 0.00 1011.8
20260503131244 -17 295 14.5 24.1 0.00 0.00 0.00 1012.0
20260503130742 -17 299 17.7 20.9 0.00 0.00 0.00 1012.1
20260503130239 -17 336 14.5 24.1 0.00 0.00 0.00 1012.0
20260503120205 -17 291 6.4 12.9 0.00 0.00 0.00 1011.8
20260503110632 -17 303 1.6 1.6 0.00 0.00 0.00 1011.8
20260503110130 -17 52 0.0 0.0 0.00 0.00 0.00 1011.8
20260503081445 -17 323 6.4 9.7 0.00 0.00 0.00 1011.2
20260503080943 -17 333 6.4 9.7 0.00 0.00 0.00 1011.0
20260503080439 -17 307 8.0 11.3 0.00 0.00 0.00 1011.1
20260503072915 -17 308 9.7 11.3 0.00 0.00 0.00 1011.0
20260503072413 -17 319 9.7 14.5 0.00 0.00 0.00 1011.2
20260503071909 -17 303 11.3 12.9 0.00 0.00 0.00 1011.2
20260503071407 -17 298 6.4 11.3 0.00 0.00 0.00 1011.2
20260503070902 -17 307 6.4 9.7 0.00 0.00 0.00 1011.2